Spokane Felts, WA
on Sunday, January 13, 2013

Sunday
Previous Day Next Day
Daily Summary
 ActualAverageRecord
Temperature
Mean Temperature °F 31°F  
Max Temperature 25°F 36°F 50°F (2014)
Min Temperature 15°F 26°F 1°F (2007)
Degree Days
Heating Degree Days 45 34  
Month to date heating degree days 478 451  
Since 1 July heating degree days 2646 3120  
Cooling Degree Days 0 0  
Month to date cooling degree days 0 0  
Year to date cooling degree days 0 0  
Moisture
Dew Point 13°F   
Average Humidity 75    
Maximum Humidity 88    
Minimum Humidity 62    
Precipitation
Precipitation T in 0.06 in 0.33 in (2011)
Month to date precipitation 0.86 0.89  
Year to date precipitation 0.86 0.89  
Wind
Wind Speed 2 mph   
Max Wind Speed 10 mph   
Max Gust Speed 10 mph   
Visibility 7 miles   
Events Snow   

Key: T is trace of precipitation, MM is missing value
Source: NWS Daily Summary
Time(PST)TemperatureDew PointHumidity Pressure Visibility Wind DirectionWind SpeedGust SpeedPrecipitationEvents Conditions
12:29 AM 19.4°F 14.0°F 80% 30.30 in 8.0 miles Calm Calm - N/A   Overcast
12:53 AM 19.0°F 14.0°F 81% 30.39 in 7.0 miles Calm Calm - N/A   Overcast
1:10 AM 19.4°F 14.0°F 80% 30.30 in 6.0 miles Calm Calm - N/A   Haze
1:53 AM 19.0°F 15.1°F 85% 30.40 in 3.0 miles Calm Calm - 0.00 in Snow Light Snow
2:07 AM 19.4°F 14.0°F 80% 30.31 in 2.5 miles ENE 3.5 mph - 0.00 in Snow Light Snow
2:41 AM 19.4°F 14.0°F 80% 30.32 in 1.8 miles Calm Calm - 0.00 in Snow Light Snow
2:48 AM 19.4°F 14.0°F 80% 30.31 in 2.0 miles East 3.5 mph - 0.00 in Snow Light Snow
2:53 AM 18.0°F 14.0°F 84% 30.40 in 2.5 miles East 3.5 mph - 0.00 in Snow Light Snow
3:08 AM 17.6°F 12.2°F 79% 30.31 in 3.0 miles Calm Calm - 0.00 in   Haze
3:32 AM 17.6°F 12.2°F 79% 30.31 in 5.0 miles Calm Calm - 0.00 in   Haze
3:53 AM 17.1°F 12.0°F 81% 30.41 in 6.0 miles Calm Calm - 0.00 in   Haze
4:53 AM 17.1°F 12.0°F 81% 30.41 in 8.0 miles Calm Calm - N/A   Overcast
5:53 AM 16.0°F 10.9°F 81% 30.43 in 6.0 miles Calm Calm - N/A   Haze
6:53 AM 16.0°F 12.0°F 84% 30.47 in 7.0 miles Calm Calm - N/A   Overcast
7:53 AM 16.0°F 10.9°F 81% 30.49 in 6.0 miles Calm Calm - 0.00 in Snow Light Snow
8:53 AM 17.1°F 12.9°F 84% 30.50 in 6.0 miles Calm Calm - 0.00 in Snow Light Snow
9:53 AM 19.0°F 14.0°F 81% 30.48 in 6.0 miles South 5.8 mph - 0.00 in   Haze
10:53 AM 19.9°F 14.0°F 78% 30.48 in 10.0 miles SW 3.5 mph - N/A   Mostly Cloudy
11:53 AM 24.1°F 14.0°F 65% 30.47 in 10.0 miles North 3.5 mph - N/A   Scattered Clouds
12:53 PM 23.0°F 14.0°F 68% 30.45 in 10.0 miles Calm Calm - N/A   Scattered Clouds
1:53 PM 23.0°F 12.9°F 65% 30.46 in 10.0 miles SW 3.5 mph - N/A   Scattered Clouds
2:53 PM 23.0°F 12.0°F 63% 30.45 in 10.0 miles Calm Calm - N/A   Scattered Clouds
3:53 PM 23.0°F 12.0°F 63% 30.46 in 10.0 miles Calm Calm - N/A   Scattered Clouds
4:12 PM 23.0°F 12.2°F 63% 30.37 in 10.0 miles Calm Calm - N/A   Mostly Cloudy
4:53 PM 21.9°F 12.0°F 66% 30.47 in 10.0 miles SSW 6.9 mph - N/A   Overcast
5:02 PM 21.2°F 12.2°F 68% 30.37 in 10.0 miles SSW 6.9 mph - N/A   Overcast
5:53 PM 19.9°F 12.0°F 71% 30.47 in 10.0 miles SSW 5.8 mph - N/A   Scattered Clouds
6:53 PM 19.9°F 12.0°F 71% 30.48 in 10.0 miles WSW 3.5 mph - N/A   Scattered Clouds
7:53 PM 19.9°F 10.9°F 68% 30.48 in 10.0 miles Calm Calm - N/A   Overcast
8:53 PM 19.9°F 12.0°F 71% 30.48 in 10.0 miles ENE 3.5 mph - N/A   Overcast
9:53 PM 19.9°F 12.0°F 71% 30.48 in 10.0 miles Calm Calm - N/A   Overcast
10:53 PM 19.9°F 12.9°F 74% 30.47 in 8.0 miles Calm Calm - N/A   Overcast
11:53 PM 19.9°F 12.0°F 71% 30.47 in 10.0 miles Calm Calm - N/A   Overcast
Moon Phase
Jan. 13 Jan. 18 Jan. 26 Feb. 03 Feb. 10
Sunrise:07:34 AM (PST) Moon Rise:08:22 AM (PST)1/13
Sunset:04:22 PM (PST) Moon Set:07:21 PM (PST)1/13

Copyright © 2014 The Weather Underground, Inc.